Home > Weather > Cedar Rapids > Past weeks

Flag for USA Past Weather in Cedar Rapids, Iowa, USA — Yesterday and Last 2 Weeks

Now
63 °F

Clear.


Feels Like: 63 °F
Forecast: 64 / 75 °F
Wind: 5 mph from Southeast

Location: Cedar Rapids Municipal Airport

Current Time: May 25, 2016 at 6:12:00 AM

Latest Report: May 25, 2016 at 4:52 AM


Visibility: 8 mi

Pressure: 29.88 "Hg

Humidity: 100%

Dew Point: 63 °F

Location of Cedar RapidsLocation

Past Weather in Cedar Rapids — Graph

°F

Cedar Rapids Temperature Yesterday

Maximum temperature yesterday: 84 °F (at 3:52 PM)
Minimum temperature yesterday: 61 °F (at 5:52 AM)
Average temperature yesterday: 72 °F

High & Low Weather Summary for the Past Weeks

 TemperatureHumidityPressure
High85 °F (May 23, 2:52 PM)100% (May 10, 3:52 AM)30.29 "Hg (May 10, 3:52 AM)
Low34 °F (May 15, 3:52 AM)27% (May 21, 3:52 PM)29.75 "Hg (May 10, 3:52 AM)
Average59 °F66%30.05 "Hg
* Reported May 10 3:52 AM — May 25 3:52 AM, Cedar Rapids, Weather by CustomWeather, © 2016

Note: Actual official high and low records may vary slightly from our data, if they occured in-between our weather recording intervals... More about our weather records

Advertising

Cedar Rapids Weather History for the Previous 24 Hours

Scroll right to see more
 ConditionsComfort  
Time TempWeatherWind HumidityBarometerVisibility
3:52 AM
Wed, May 25
63 °FClear.5 mph100%29.87 "Hg9 mi
2:52 AM65 °FClear.3 mph97%29.90 "Hg10 mi
1:52 AM65 °FClear.6 mph97%29.94 "Hg10 mi
12:52 AM66 °FClear.6 mph93%29.92 "Hg10 mi
11:52 PM
Tue, May 24
69 °FClear.8 mph90%29.91 "Hg10 mi
10:52 PM69 °FClear.7 mph87%29.90 "Hg10 mi
9:52 PM72 °FClear.7 mph78%29.90 "Hg10 mi
8:52 PM74 °FSunny.7 mph74%29.88 "Hg10 mi
7:52 PM79 °FSunny.8 mph65%29.88 "Hg10 mi
6:52 PM82 °FPassing clouds.10 mph55%29.87 "Hg10 mi
5:52 PM82 °FScattered clouds.15 mph58%29.86 "Hg10 mi
4:52 PM84 °FSunny.9 mph53%29.88 "Hg10 mi
3:52 PM84 °FPassing clouds.10 mph51%29.88 "Hg10 mi
2:52 PM83 °FBroken clouds.10 mph55%29.89 "Hg10 mi
1:52 PM81 °FScattered clouds.6 mph56%29.88 "Hg10 mi
12:52 PM78 °FPassing clouds.7 mph62%29.91 "Hg10 mi
11:52 AM77 °FScattered clouds.12 mph66%29.92 "Hg10 mi
10:52 AM73 °FBroken clouds.13 mph76%29.92 "Hg10 mi
9:52 AM69 °FPartly sunny.9 mph87%29.92 "Hg10 mi
8:52 AM68 °FPassing clouds.9 mph90%29.93 "Hg10 mi
7:52 AM66 °FOvercast.5 mph90%29.87 "Hg10 mi
6:52 AM63 °FPartly sunny.6 mph93%29.89 "Hg10 mi
Weather by CustomWeather, © 2016

See weather overviewHow to use our weather pages